This demonstration page uses our WeatherBlox Daily Observations layout. Learn more.

Left ArrowRight Arrow

41.12389, -100.76542

Hourly Observations for July 19, 2018

Temp ( °F °C ) Dew Point ( °F °C ) Humidity (%) Winds ( mph kmh ) Pressure ( in mb ) Visibility ( mi km ) Precip ( " mm )
12:53 am 00:53 Clear 72 22.2 70 21.1 94 94 Calm 29.87 1012 10 16 0.00 0.00
1:53 am 01:53 Clear 73 22.8 71 21.7 94 94 SSW 8 13 29.85 1011 10 16 0.00 0.00
2:53 am 02:53 Clear 72 22.2 71 21.7 97 97 SW 3 6 29.85 1011 10 16 0.00 0.00
3:53 am 03:53 Clear 70 21.1 70 21.1 100 100 Calm 29.86 1011 10 16 0.00 0.00
4:53 am 04:53 Clear 67 19.4 67 19.4 100 100 Calm 29.85 1011 7 11 0.00 0.00
5:53 am 05:53 Clear 65 18.3 65 18.3 100 100 NNW 5 7 29.85 1011 8 13 0.00 0.00
6:53 am 06:53 Sunny 64 17.8 64 17.8 100 100 N 7 11 29.86 1011 7 11 0.00 0.00
7:53 am 07:53 Sunny 67 19.4 66 18.9 97 97 W 5 7 29.87 1012 10 16 0.00 0.00
8:53 am 08:53 Sunny 75 23.9 68 20 79 79 Calm 29.87 1012 10 16 0.00 0.00
9:53 am 09:53 Sunny 80 26.7 70 21.1 71 71 E 8 13 29.87 1012 10 16 0.00 0.00
10:53 am 10:53 Sunny 82 27.8 68 20 63 63 NE 6 9 29.87 1011 10 16 0.00 0.00
11:53 am 11:53 Sunny 87 30.6 70 21.1 57 57 NE 8 13 29.86 1011 10 16 0.00 0.00
12:53 pm 12:53 Sunny 88 31.1 69 20.6 54 54 NNE 6 9 29.85 1011 10 16 0.00 0.00
1:53 pm 13:53 Sunny 89 31.7 67 19.4 48 48 Calm 29.84 1010 10 16 0.00 0.00
2:53 pm 14:53 Sunny 91 32.8 69 20.6 49 49 VRB 3 6 29.83 1010 10 16 0.00 0.00
3:53 pm 15:53 Sunny 91 32.8 69 20.6 49 49 WSW 5 7 29.82 1010 10 16 0.00 0.00
4:53 pm 16:53 Sunny 93 33.9 67 19.4 42 42 WSW 6 9 29.82 1010 10 16 0.00 0.00
5:53 pm 17:53 Sunny 95 35 65 18.3 37 37 VRB 3 6 29.80 1009 10 16 0.00 0.00
6:53 pm 18:53 Sunny 93 33.9 67 19.4 42 42 SSW 5 7 29.80 1009 10 16 0.00 0.00
7:53 pm 19:53 Sunny 89 31.7 75 23.9 63 63 SSE 5 7 29.79 1009 10 16 0.00 0.00
8:53 pm 20:53 Sunny 82 27.8 76 24.4 82 82 SE 5 7 29.80 1009 10 16 0.00 0.00
9:53 pm 21:53 Clear 79 26.1 74 23.3 85 85 SE 9 15 29.84 1010 10 16 0.00 0.00
10:53 pm 22:53 Clear 74 23.3 71 21.7 91 91 ESE 8 13 29.87 1012 10 16 0.00 0.00
11:53 pm 23:53 Clear 73 22.8 71 21.7 94 94 ESE 3 6 29.88 1012 10 16 0.00 0.00

Powered by AerisWeather